When you browse on this site, cookies collect data to enhance your experience and personalize the content and advertising you see.
Visit our Privacy Policy to learn more. By continuing to use the site, you agree to this use of cookies and data.

Hourly Weather Santiago del Estero

Today, 14 July, Tuesday

Time Temperature Precipitation Wind Pressure Humidity
00:00 +9°C° 0 mm 2 mps 751 mmHg 54%
01:00 +8°C° 0 mm 2 mps 751 mmHg 57%
02:00 +8°C° 0 mm 1 mps 751 mmHg 60%
03:00 +8°C° 0 mm 1 mps 751 mmHg 62%
04:00 +8°C° 0 mm 1 mps 751 mmHg 65%
05:00 +7°C° 0 mm 1 mps 750 mmHg 67%
06:00 +8°C° 0 mm 1 mps 751 mmHg 65%
07:00 +8°C° 0 mm 1 mps 751 mmHg 63%
08:00 +9°C° 0 mm 1 mps 751 mmHg 61%
09:00 +10°C° 0 mm 2 mps 751 mmHg 55%
10:00 +13°C° 0 mm 3 mps 751 mmHg 49%
11:00 +16°C° 0 mm 3 mps 751 mmHg 43%
12:00 +17°C° 0 mm 3 mps 750 mmHg 41%
13:00 +18°C° 0 mm 4 mps 749 mmHg 38%
14:00 +20°C° 0 mm 4 mps 748 mmHg 36%
15:00 +19°C° 0 mm 4 mps 747 mmHg 36%
16:00 +19°C° 0 mm 3 mps 746 mmHg 36%
17:00 +19°C° 0 mm 3 mps 746 mmHg 36%
18:00 +17°C° 0 mm 3 mps 746 mmHg 39%
19:00 +16°C° 0 mm 3 mps 746 mmHg 41%
20:00 +13°C° 0 mm 3 mps 746 mmHg 44%
21:00 +13°C° 0 mm 3 mps 746 mmHg 46%
22:00 +12°C° 0 mm 4 mps 746 mmHg 48%
23:00 +11°C° 0 mm 4 mps 747 mmHg 50%

Tomorrow, 15 July, Wednesday

Time Temperature Precipitation Wind Pressure Humidity
00:00 +11°C° 0 mm 4 mps 746 mmHg 54%
01:00 +10°C° 0 mm 3 mps 746 mmHg 57%
02:00 +10°C° 0 mm 3 mps 746 mmHg 61%
03:00 +9°C° 0 mm 3 mps 746 mmHg 63%
04:00 +9°C° 0 mm 3 mps 745 mmHg 66%
05:00 +8°C° 0 mm 3 mps 745 mmHg 69%
06:00 +8°C° 0 mm 2 mps 745 mmHg 69%
07:00 +9°C° 0 mm 2 mps 745 mmHg 69%
08:00 +9°C° 0 mm 2 mps 746 mmHg 69%
09:00 +11°C° 0 mm 3 mps 746 mmHg 62%
10:00 +13°C° 0 mm 3 mps 745 mmHg 55%
11:00 +16°C° 0 mm 3 mps 745 mmHg 49%
12:00 +16°C° 0 mm 3 mps 744 mmHg 46%
13:00 +17°C° 0 mm 4 mps 744 mmHg 44%
14:00 +18°C° 0 mm 4 mps 743 mmHg 42%
15:00 +18°C° 0 mm 4 mps 743 mmHg 41%
16:00 +18°C° 0 mm 3 mps 742 mmHg 41%
17:00 +18°C° 0 mm 3 mps 742 mmHg 40%
18:00 +16°C° 0 mm 3 mps 743 mmHg 41%
19:00 +13°C° 0 mm 3 mps 743 mmHg 43%
20:00 +12°C° 0 mm 3 mps 744 mmHg 44%
21:00 +12°C° 0 mm 2 mps 744 mmHg 45%
22:00 +10°C° 0 mm 2 mps 744 mmHg 47%
23:00 +9°C° 0 mm 2 mps 744 mmHg 48%

Day after tomorrow, 16 July, Thursday

Time Temperature Precipitation Wind Pressure Humidity
00:00 +10°C° 0 mm 1 mps 744 mmHg 52%
01:00 +9°C° 0 mm 1 mps 744 mmHg 55%
02:00 +9°C° 0 mm 1 mps 743 mmHg 58%
03:00 +8°C° 0 mm 1 mps 743 mmHg 61%
04:00 +7°C° 0 mm 0 mps 743 mmHg 64%
05:00 +6°C° 0 mm 0 mps 742 mmHg 67%
06:00 +7°C° 0 mm 0 mps 743 mmHg 65%
07:00 +9°C° 0 mm 1 mps 743 mmHg 62%
08:00 +10°C° 0 mm 1 mps 744 mmHg 59%
09:00 +13°C° 0 mm 1 mps 744 mmHg 54%
10:00 +15°C° 0 mm 1 mps 744 mmHg 48%
11:00 +18°C° 0 mm 1 mps 744 mmHg 43%
12:00 +19°C° 0 mm 2 mps 743 mmHg 41%
13:00 +20°C° 0 mm 2 mps 742 mmHg 40%
14:00 +23°C° 0 mm 2 mps 741 mmHg 38%
15:00 +23°C° 0 mm 2 mps 741 mmHg 40%
16:00 +21°C° 0 mm 2 mps 741 mmHg 42%
17:00 +22°C° 0 mm 1 mps 740 mmHg 44%
18:00 +20°C° 0 mm 1 mps 741 mmHg 52%
19:00 +18°C° 0 mm 1 mps 741 mmHg 59%
20:00 +15°C° 0 mm 1 mps 742 mmHg 67%
21:00 +15°C° 0 mm 1 mps 742 mmHg 71%
22:00 +15°C° 0 mm 2 mps 742 mmHg 74%
23:00 +15°C° 0 mm 2 mps 742 mmHg 77%

17 July, Friday

Time Temperature Precipitation Wind Pressure Humidity
00:00 +14°C° 0 mm 2 mps 742 mmHg 82%
01:00 +14°C° 0 mm 2 mps 741 mmHg 87%
02:00 +13°C° 0 mm 1 mps 741 mmHg 92%
03:00 +13°C° 0 mm 1 mps 741 mmHg 93%
04:00 +12°C° 0 mm 1 mps 741 mmHg 94%
05:00 +12°C° 0 mm 1 mps 740 mmHg 95%
06:00 +13°C° 0 mm 1 mps 740 mmHg 94%
07:00 +13°C° 0 mm 2 mps 740 mmHg 93%
08:00 +14°C° 0 mm 2 mps 740 mmHg 92%
09:00 +16°C° 0 mm 3 mps 740 mmHg 81%
10:00 +19°C° 0 mm 3 mps 740 mmHg 70%
11:00 +21°C° 0 mm 4 mps 739 mmHg 59%
12:00 +23°C° 0 mm 4 mps 738 mmHg 55%
13:00 +25°C° 0 mm 4 mps 738 mmHg 51%
14:00 +27°C° 0 mm 4 mps 737 mmHg 47%
15:00 +27°C° 0 mm 3 mps 736 mmHg 48%
16:00 +27°C° 0 mm 3 mps 736 mmHg 49%
17:00 +27°C° 0 mm 2 mps 736 mmHg 50%
18:00 +25°C° 0 mm 2 mps 736 mmHg 57%
19:00 +24°C° 0 mm 2 mps 736 mmHg 64%
20:00 +22°C° 0 mm 1 mps 736 mmHg 71%
21:00 +21°C° 0 mm 1 mps 736 mmHg 75%
22:00 +21°C° 0 mm 1 mps 736 mmHg 78%
23:00 +20°C° 0 mm 1 mps 736 mmHg 82%

18 July, Saturday

Time Temperature Precipitation Wind Pressure Humidity
00:00 +20°C° 0 mm 1 mps 735 mmHg 83%
01:00 +19°C° 0 mm 1 mps 735 mmHg 85%
02:00 +19°C° 0 mm 1 mps 735 mmHg 87%
03:00 +18°C° 0 mm 1 mps 735 mmHg 88%
04:00 +18°C° 0 mm 1 mps 735 mmHg 89%
05:00 +18°C° 0 mm 1 mps 735 mmHg 90%
06:00 +18°C° 0 mm 1 mps 735 mmHg 89%
07:00 +19°C° 0 mm 1 mps 736 mmHg 88%
08:00 +18°C° 0 mm 0 mps 736 mmHg 86%
09:00 +22°C° 0 mm 1 mps 736 mmHg 76%
10:00 +24°C° 0 mm 1 mps 736 mmHg 66%
11:00 +27°C° 0 mm 2 mps 736 mmHg 56%
12:00 +28°C° 0 mm 2 mps 736 mmHg 52%
13:00 +29°C° 0 mm 2 mps 735 mmHg 48%
14:00 +30°C° 0 mm 2 mps 735 mmHg 44%
15:00 +30°C° 0 mm 1 mps 735 mmHg 46%
16:00 +29°C° 0 mm 1 mps 735 mmHg 48%
17:00 +29°C° 0 mm 1 mps 735 mmHg 50%
18:00 +27°C° 0 mm 1 mps 735 mmHg 54%
19:00 +26°C° 0 mm 1 mps 735 mmHg 59%
20:00 +24°C° 0 mm 2 mps 736 mmHg 63%
21:00 +24°C° 0 mm 2 mps 736 mmHg 66%
22:00 +23°C° 0 mm 2 mps 736 mmHg 68%
23:00 +23°C° 0 mm 2 mps 736 mmHg 70%

19 July, Sunday

Time Temperature Precipitation Wind Pressure Humidity
00:00 +21°C° 0 mm 2 mps 736 mmHg 75%
01:00 +21°C° 0 mm 3 mps 736 mmHg 80%
02:00 +20°C° 0 mm 3 mps 735 mmHg 85%
03:00 +19°C° 0 mm 3 mps 735 mmHg 88%
04:00 +19°C° 0 mm 3 mps 735 mmHg 91%
05:00 +18°C° 0 mm 3 mps 735 mmHg 94%
06:00 +18°C° 0 mm 3 mps 735 mmHg 93%
07:00 +18°C° 0 mm 3 mps 736 mmHg 92%
08:00 +18°C° 0 mm 2 mps 736 mmHg 92%
09:00 +20°C° 0 mm 2 mps 736 mmHg 81%
10:00 +24°C° 0 mm 1 mps 736 mmHg 71%
11:00 +26°C° 0 mm 1 mps 736 mmHg 60%
12:00 +27°C° 0 mm 2 mps 735 mmHg 55%
13:00 +29°C° 0 mm 2 mps 735 mmHg 50%
14:00 +31°C° 0 mm 3 mps 734 mmHg 45%
15:00 +31°C° 0 mm 2 mps 734 mmHg 45%
16:00 +31°C° 0 mm 2 mps 734 mmHg 44%
17:00 +31°C° 0 mm 1 mps 733 mmHg 44%
18:00 +29°C° 0 mm 1 mps 734 mmHg 49%
19:00 +27°C° 0 mm 1 mps 734 mmHg 55%
20:00 +25°C° 0 mm 1 mps 734 mmHg 60%
21:00 +25°C° 0 mm 2 mps 734 mmHg 62%
22:00 +24°C° 0 mm 2 mps 734 mmHg 64%
23:00 +24°C° 0 mm 2 mps 734 mmHg 65%
Show more